Time,TemperatureF,DewpointF,PressureIn,WindDirection,WindDirectionDegrees,WindSpeedMPH,WindSpeedGustMPH,Humidity,HourlyPrecipIn,Conditions,Clouds,dailyrainin,SolarRadiationWatts/m^2,SoftwareType,DateUTC
2014-02-14 00:04:00,34.1,33.0,29.11,West,279,9.0,18.0,96,0.01,,,1.58,0,weatherlink.com 1.10,2014-02-14 05:04:00,
2014-02-14 00:19:00,34.3,33.0,29.12,West,279,18.0,20.0,96,0.01,,,0.00,0,weatherlink.com 1.10,2014-02-14 05:19:00,
2014-02-14 00:34:00,34.2,33.0,29.13,WNW,292,14.0,24.0,96,0.01,,,0.00,0,weatherlink.com 1.10,2014-02-14 05:34:00,
2014-02-14 00:49:00,34.1,33.0,29.14,West,277,15.0,27.0,96,0.00,,,0.00,0,weatherlink.com 1.10,2014-02-14 05:49:00,
2014-02-14 01:04:00,34.0,33.0,29.14,WNW,287,16.0,27.0,95,0.00,,,0.00,0,weatherlink.com 1.10,2014-02-14 06:04:00,
2014-02-14 01:19:00,33.8,33.0,29.15,West,278,21.0,30.0,95,0.00,,,0.00,0,weatherlink.com 1.10,2014-02-14 06:19:00,
2014-02-14 01:34:00,33.9,33.0,29.16,WNW,292,20.0,31.0,95,0.00,,,0.00,0,weatherlink.com 1.10,2014-02-14 06:34:00,
2014-02-14 01:49:00,34.0,33.0,29.17,WNW,284,21.0,29.0,95,0.00,,,0.00,0,weatherlink.com 1.10,2014-02-14 06:49:00,
2014-02-14 02:04:00,33.9,32.0,29.17,WNW,282,18.0,27.0,94,0.00,,,0.00,0,weatherlink.com 1.10,2014-02-14 07:04:00,
2014-02-14 02:19:00,33.5,32.0,29.18,West,269,22.0,28.0,94,0.00,,,0.00,0,weatherlink.com 1.10,2014-02-14 07:19:00,
2014-02-14 02:34:00,32.9,31.0,29.19,West,278,17.0,30.0,94,0.00,,,0.00,0,weatherlink.com 1.10,2014-02-14 07:34:00,
2014-02-14 02:49:00,32.5,31.0,29.20,West,261,20.0,31.0,95,0.00,,,0.00,0,weatherlink.com 1.10,2014-02-14 07:49:00,
2014-02-14 03:04:00,32.6,32.0,29.21,West,278,21.0,33.0,96,0.00,,,0.00,0,weatherlink.com 1.10,2014-02-14 08:04:00,
2014-02-14 03:19:00,33.1,32.0,29.23,WSW,256,19.0,29.0,96,0.00,,,0.00,0,weatherlink.com 1.10,2014-02-14 08:19:00,
2014-02-14 03:50:00,34.1,33.0,29.24,West,272,24.0,31.0,95,0.01,,,0.01,0,weatherlink.com 1.10,2014-02-14 08:50:00,
2014-02-14 04:05:00,34.6,33.0,29.26,WNW,282,13.0,30.0,95,0.01,,,0.01,0,weatherlink.com 1.10,2014-02-14 09:05:00,
2014-02-14 04:20:00,35.0,34.0,29.28,West,280,19.0,32.0,95,0.01,,,0.01,0,weatherlink.com 1.10,2014-02-14 09:20:00,
2014-02-14 04:35:00,35.4,34.0,29.29,WNW,292,20.0,31.0,94,0.01,,,0.01,0,weatherlink.com 1.10,2014-02-14 09:35:00,
2014-02-14 04:50:00,35.8,34.0,29.31,West,281,27.0,31.0,92,0.00,,,0.01,0,weatherlink.com 1.10,2014-02-14 09:50:00,
2014-02-14 05:05:00,35.9,33.0,29.32,West,268,20.0,30.0,90,0.00,,,0.01,0,weatherlink.com 1.10,2014-02-14 10:05:00,
2014-02-14 05:20:00,36.1,33.0,29.33,West,272,18.0,30.0,89,0.00,,,0.01,0,weatherlink.com 1.10,2014-02-14 10:20:00,
2014-02-14 05:35:00,36.2,33.0,29.34,WNW,283,17.0,30.0,88,0.00,,,0.01,0,weatherlink.com 1.10,2014-02-14 10:35:00,
2014-02-14 05:50:00,36.2,33.0,29.35,WNW,283,19.0,29.0,88,0.00,,,0.01,0,weatherlink.com 1.10,2014-02-14 10:50:00,
2014-02-14 06:05:00,36.1,33.0,29.37,West,269,14.0,27.0,87,0.00,,,0.01,0,weatherlink.com 1.10,2014-02-14 11:05:00,
2014-02-14 06:20:00,36.0,32.0,29.38,West,277,24.0,30.0,85,0.00,,,0.01,0,weatherlink.com 1.10,2014-02-14 11:20:00,
2014-02-14 06:35:00,35.9,31.0,29.39,West,272,14.0,27.0,83,0.00,,,0.01,0,weatherlink.com 1.10,2014-02-14 11:35:00,
2014-02-14 06:50:00,35.8,30.0,29.40,West,269,13.0,27.0,79,0.00,,,0.01,5,weatherlink.com 1.10,2014-02-14 11:50:00,
2014-02-14 07:05:00,35.9,28.0,29.42,West,273,18.0,30.0,74,0.00,,,0.01,12,weatherlink.com 1.10,2014-02-14 12:05:00,
2014-02-14 07:20:00,35.5,27.0,29.45,West,263,13.0,29.0,72,0.00,,,0.01,32,weatherlink.com 1.10,2014-02-14 12:20:00,
2014-02-14 07:35:00,35.4,27.0,29.46,WSW,253,16.0,28.0,71,0.00,,,0.01,70,weatherlink.com 1.10,2014-02-14 12:35:00,
2014-02-14 07:50:00,35.2,27.0,29.48,WSW,256,21.0,25.0,72,0.00,,,0.01,118,weatherlink.com 1.10,2014-02-14 12:50:00,
2014-02-14 08:05:00,35.4,27.0,29.48,West,261,13.0,29.0,70,0.00,,,0.01,171,weatherlink.com 1.10,2014-02-14 13:05:00,
2014-02-14 08:21:00,35.8,27.0,29.49,WSW,256,7.0,26.0,71,0.00,,,0.01,220,weatherlink.com 1.10,2014-02-14 13:21:00,
2014-02-14 08:36:00,36.3,27.0,29.50,West,262,21.0,28.0,69,0.00,,,0.01,262,weatherlink.com 1.10,2014-02-14 13:36:00,
2014-02-14 08:51:00,37.0,27.0,29.52,WSW,253,12.0,25.0,68,0.00,,,0.01,308,weatherlink.com 1.10,2014-02-14 13:51:00,
2014-02-14 09:05:00,37.8,27.0,29.52,West,259,10.0,25.0,66,0.00,,,0.01,350,weatherlink.com 1.10,2014-02-14 14:05:00,
2014-02-14 09:20:00,38.8,27.0,29.53,WSW,245,15.0,30.0,63,0.00,,,0.01,392,weatherlink.com 1.10,2014-02-14 14:20:00,
2014-02-14 09:35:00,40.1,28.0,29.53,WSW,256,15.0,24.0,62,0.00,,,0.01,427,weatherlink.com 1.10,2014-02-14 14:35:00,
2014-02-14 09:50:00,41.9,29.0,29.54,WSW,256,25.0,30.0,61,0.00,,,0.01,466,weatherlink.com 1.10,2014-02-14 14:50:00,
2014-02-14 10:05:00,42.4,28.0,29.55,West,263,21.0,37.0,57,0.00,,,0.01,497,weatherlink.com 1.10,2014-02-14 15:05:00,
2014-02-14 10:20:00,42.8,28.0,29.55,WSW,237,25.0,35.0,56,0.00,,,0.01,529,weatherlink.com 1.10,2014-02-14 15:20:00,
2014-02-14 10:35:00,43.0,29.0,29.55,West,262,30.0,34.0,57,0.00,,,0.01,561,weatherlink.com 1.10,2014-02-14 15:35:00,
2014-02-14 10:51:00,43.3,29.0,29.56,WSW,253,19.0,35.0,57,0.00,,,0.01,585,weatherlink.com 1.10,2014-02-14 15:51:00,
2014-02-14 11:06:00,44.1,28.0,29.57,WSW,258,16.0,39.0,54,0.00,,,0.01,605,weatherlink.com 1.10,2014-02-14 16:06:00,
2014-02-14 11:21:00,44.6,29.0,29.57,WSW,243,15.0,32.0,54,0.00,,,0.01,624,weatherlink.com 1.10,2014-02-14 16:21:00,
2014-02-14 11:36:00,44.9,29.0,29.57,SW,231,23.0,31.0,53,0.00,,,0.01,636,weatherlink.com 1.10,2014-02-14 16:36:00,
2014-02-14 11:51:00,45.5,29.0,29.57,WSW,241,15.0,33.0,53,0.00,,,0.01,645,weatherlink.com 1.10,2014-02-14 16:51:00,
2014-02-14 12:06:00,46.0,29.0,29.57,WNW,292,21.0,36.0,51,0.00,,,0.01,649,weatherlink.com 1.10,2014-02-14 17:06:00,
2014-02-14 12:21:00,46.1,29.0,29.57,West,270,16.0,32.0,51,0.00,,,0.01,645,weatherlink.com 1.10,2014-02-14 17:21:00,
2014-02-14 12:36:00,46.2,29.0,29.57,West,262,25.0,36.0,52,0.00,,,0.01,566,weatherlink.com 1.10,2014-02-14 17:36:00,
2014-02-14 12:51:00,46.1,30.0,29.57,West,269,11.0,36.0,54,0.00,,,0.01,759,weatherlink.com 1.10,2014-02-14 17:51:00,
2014-02-14 13:06:00,46.6,30.0,29.58,West,272,22.0,38.0,53,0.00,,,0.01,751,weatherlink.com 1.10,2014-02-14 18:06:00,
2014-02-14 13:21:00,46.3,29.0,29.58,West,275,18.0,31.0,51,0.00,,,0.01,705,weatherlink.com 1.10,2014-02-14 18:21:00,
2014-02-14 13:36:00,46.9,29.0,29.57,WSW,241,20.0,33.0,51,0.00,,,0.01,659,weatherlink.com 1.10,2014-02-14 18:36:00,
2014-02-14 13:51:00,46.8,28.0,29.58,West,266,19.0,33.0,49,0.00,,,0.01,584,weatherlink.com 1.10,2014-02-14 18:51:00,
2014-02-14 14:06:00,47.2,29.0,29.58,West,260,18.0,29.0,50,0.00,,,0.01,563,weatherlink.com 1.10,2014-02-14 19:06:00,
2014-02-14 14:21:00,47.2,29.0,29.59,WNW,282,19.0,23.0,50,0.00,,,0.01,561,weatherlink.com 1.10,2014-02-14 19:21:00,
2014-02-14 14:36:00,47.1,29.0,29.60,West,276,13.0,28.0,50,0.00,,,0.01,510,weatherlink.com 1.10,2014-02-14 19:36:00,
2014-02-14 14:51:00,46.9,30.0,29.61,WNW,282,13.0,23.0,53,0.00,,,0.01,461,weatherlink.com 1.10,2014-02-14 19:51:00,
2014-02-14 15:06:00,47.2,31.0,29.61,West,270,7.0,22.0,53,0.00,,,0.01,420,weatherlink.com 1.10,2014-02-14 20:06:00,
2014-02-14 15:21:00,47.4,31.0,29.62,WNW,285,12.0,18.0,53,0.00,,,0.01,383,weatherlink.com 1.10,2014-02-14 20:21:00,
2014-02-14 15:36:00,46.9,31.0,29.62,West,260,6.0,23.0,55,0.00,,,0.01,330,weatherlink.com 1.10,2014-02-14 20:36:00,
2014-02-14 15:51:00,46.5,30.0,29.64,West,274,23.0,25.0,53,0.00,,,0.01,288,weatherlink.com 1.10,2014-02-14 20:51:00,
2014-02-14 16:06:00,46.2,30.0,29.64,West,278,15.0,29.0,53,0.00,,,0.01,234,weatherlink.com 1.10,2014-02-14 21:06:00,
2014-02-14 16:21:00,46.0,30.0,29.65,WNW,287,12.0,25.0,54,0.00,,,0.01,148,weatherlink.com 1.10,2014-02-14 21:21:00,
2014-02-14 16:36:00,45.3,31.0,29.66,WSW,257,9.0,17.0,57,0.00,,,0.01,56,weatherlink.com 1.10,2014-02-14 21:36:00,
2014-02-14 16:51:00,44.7,30.0,29.67,West,272,14.0,14.0,57,0.00,,,0.01,65,weatherlink.com 1.10,2014-02-14 21:51:00,
2014-02-14 17:06:00,44.7,31.0,29.68,WSW,248,7.0,14.0,58,0.00,,,0.01,47,weatherlink.com 1.10,2014-02-14 22:06:00,
2014-02-14 17:21:00,44.3,31.0,29.69,WSW,249,9.0,12.0,59,0.00,,,0.01,16,weatherlink.com 1.10,2014-02-14 22:21:00,
2014-02-14 17:36:00,44.0,30.0,29.71,WSW,238,9.0,12.0,59,0.00,,,0.01,0,weatherlink.com 1.10,2014-02-14 22:36:00,
2014-02-14 17:51:00,43.6,30.0,29.72,WSW,251,5.0,10.0,60,0.00,,,0.01,0,weatherlink.com 1.10,2014-02-14 22:51:00,
2014-02-14 18:06:00,42.9,31.0,29.73,SW,228,2.0,8.0,63,0.00,,,0.01,0,weatherlink.com 1.10,2014-02-14 23:06:00,
2014-02-14 18:22:00,43.0,31.0,29.74,WSW,238,3.0,8.0,63,0.00,,,0.01,0,weatherlink.com 1.10,2014-02-14 23:22:00,
2014-02-14 18:37:00,43.3,30.0,29.74,SW,233,5.0,10.0,61,0.00,,,0.01,0,weatherlink.com 1.10,2014-02-14 23:37:00,
2014-02-14 18:52:00,42.9,31.0,29.75,WSW,244,1.0,9.0,62,0.00,,,0.01,0,weatherlink.com 1.10,2014-02-14 23:52:00,
2014-02-14 19:07:00,42.7,31.0,29.76,West,264,1.0,10.0,63,0.00,,,0.01,0,weatherlink.com 1.10,2014-02-15 00:07:00,
2014-02-14 19:22:00,42.7,31.0,29.77,West,263,1.0,5.0,63,0.00,,,0.01,0,weatherlink.com 1.10,2014-02-15 00:22:00,
2014-02-14 19:37:00,42.3,31.0,29.78,West,264,4.0,6.0,64,0.00,,,0.01,0,weatherlink.com 1.10,2014-02-15 00:37:00,
2014-02-14 19:52:00,42.7,31.0,29.78,West,263,2.0,5.0,63,0.00,,,0.01,0,weatherlink.com 1.10,2014-02-15 00:52:00,
2014-02-14 20:07:00,42.3,30.0,29.77,West,263,2.0,3.0,63,0.00,,,0.01,0,weatherlink.com 1.10,2014-02-15 01:07:00,
2014-02-14 20:22:00,41.9,30.0,29.78,West,263,0.0,2.0,64,0.00,,,0.01,0,weatherlink.com 1.10,2014-02-15 01:22:00,
2014-02-14 20:37:00,40.7,30.0,29.78,West,263,0.0,0.0,66,0.00,,,0.01,0,weatherlink.com 1.10,2014-02-15 01:37:00,
2014-02-14 20:52:00,40.9,30.0,29.78,West,263,0.0,0.0,66,0.00,,,0.01,0,weatherlink.com 1.10,2014-02-15 01:52:00,
2014-02-14 21:07:00,40.2,30.0,29.78,West,264,0.0,0.0,68,0.00,,,0.01,0,weatherlink.com 1.10,2014-02-15 02:07:00,
2014-02-14 21:22:00,40.0,30.0,29.77,West,264,0.0,0.0,68,0.00,,,0.01,0,weatherlink.com 1.10,2014-02-15 02:22:00,
2014-02-14 21:37:00,38.6,30.0,29.78,West,263,0.0,0.0,71,0.00,,,0.01,0,weatherlink.com 1.10,2014-02-15 02:37:00,
2014-02-14 21:52:00,37.7,30.0,29.78,West,263,0.0,0.0,75,0.00,,,0.01,0,weatherlink.com 1.10,2014-02-15 02:52:00,
2014-02-14 22:07:00,37.1,31.0,29.78,West,263,0.0,0.0,77,0.00,,,0.01,0,weatherlink.com 1.10,2014-02-15 03:07:00,
2014-02-14 22:22:00,36.6,32.0,29.78,West,263,0.0,2.0,82,0.00,,,0.01,0,weatherlink.com 1.10,2014-02-15 03:22:00,
2014-02-14 22:37:00,36.5,32.0,29.77,West,263,2.0,3.0,85,0.00,,,0.01,0,weatherlink.com 1.10,2014-02-15 03:37:00,
2014-02-14 22:52:00,36.6,33.0,29.78,West,263,2.0,4.0,87,0.00,,,0.01,0,weatherlink.com 1.10,2014-02-15 03:52:00,
2014-02-14 23:07:00,36.8,33.0,29.78,West,263,3.0,4.0,87,0.00,,,0.01,0,weatherlink.com 1.10,2014-02-15 04:07:00,
2014-02-14 23:22:00,37.0,34.0,29.78,West,263,0.0,3.0,87,0.00,,,0.01,0,weatherlink.com 1.10,2014-02-15 04:22:00,
2014-02-14 23:37:00,37.0,34.0,29.79,West,263,0.0,3.0,88,0.00,,,0.01,0,weatherlink.com 1.10,2014-02-15 04:37:00,
2014-02-14 23:52:00,36.7,33.0,29.79,West,263,0.0,0.0,87,0.00,,,0.01,0,weatherlink.com 1.10,2014-02-15 04:52:00,